Time,TemperatureF,DewpointF,PressureIn,WindDirection,WindDirectionDegrees,WindSpeedMPH,WindSpeedGustMPH,Humidity,HourlyPrecipIn,Conditions,Clouds,dailyrainin,SoftwareType,DateUTC
2013-06-27 00:53:00,56.0,43.0,-100.00,SW,220,12.0,13.0,62,-99.99,,,0.00,,2013-06-27 06:53:00,
2013-06-27 01:02:00,56.0,43.0,-100.00,SW,220,12.0,13.0,62,-99.99,,,0.00,,2013-06-27 07:02:00,
2013-06-27 01:12:00,56.0,43.0,-100.00,SW,220,12.0,13.0,62,-99.99,,,0.00,,2013-06-27 07:12:00,
2013-06-27 01:22:00,56.0,43.0,-100.00,SW,220,12.0,13.0,62,-99.99,,,0.00,,2013-06-27 07:22:00,
2013-06-27 01:52:00,58.0,44.0,-100.00,SW,220,14.0,16.0,59,-99.99,,,0.00,,2013-06-27 07:52:00,
2013-06-27 02:01:00,58.0,44.0,-100.00,SW,220,14.0,16.0,59,-99.99,,,0.00,,2013-06-27 08:01:00,
2013-06-27 02:11:00,58.0,44.0,-100.00,SW,220,14.0,16.0,59,-99.99,,,0.00,,2013-06-27 08:11:00,
2013-06-27 02:22:00,58.0,44.0,-100.00,SW,220,14.0,16.0,59,-99.99,,,0.00,,2013-06-27 08:22:00,
2013-06-27 02:52:00,56.0,43.0,-100.00,SSW,210,11.0,13.0,62,-99.99,,,0.00,,2013-06-27 08:52:00,
2013-06-27 03:02:00,56.0,43.0,-100.00,SSW,210,11.0,13.0,62,-99.99,,,0.00,,2013-06-27 09:02:00,
2013-06-27 03:11:00,56.0,43.0,-100.00,SSW,210,11.0,13.0,62,-99.99,,,0.00,,2013-06-27 09:11:00,
2013-06-27 03:22:00,56.0,43.0,-100.00,SSW,210,11.0,13.0,62,-99.99,,,0.00,,2013-06-27 09:22:00,
2013-06-27 03:53:00,57.0,43.0,-100.00,SSW,210,15.0,17.0,61,-99.99,,,0.00,,2013-06-27 09:53:00,
2013-06-27 04:01:00,57.0,43.0,-100.00,SSW,210,15.0,17.0,61,-99.99,,,0.00,,2013-06-27 10:01:00,
2013-06-27 04:11:00,57.0,43.0,-100.00,SSW,210,15.0,17.0,61,-99.99,,,0.00,,2013-06-27 10:11:00,
2013-06-27 04:22:00,57.0,43.0,-100.00,SSW,210,15.0,17.0,61,-99.99,,,0.00,,2013-06-27 10:22:00,
2013-06-27 05:52:00,56.0,42.0,-100.00,SW,220,18.0,20.0,60,-99.99,,,0.00,,2013-06-27 11:52:00,
2013-06-27 06:01:00,56.0,42.0,-100.00,SW,220,18.0,20.0,60,-99.99,,,0.00,,2013-06-27 12:01:00,
2013-06-27 06:11:00,56.0,42.0,-100.00,SW,220,18.0,20.0,60,-99.99,,,0.00,,2013-06-27 12:11:00,
2013-06-27 06:22:00,56.0,42.0,-100.00,SW,220,18.0,20.0,60,-99.99,,,0.00,,2013-06-27 12:22:00,
2013-06-27 07:01:00,55.0,43.0,-100.00,SSW,210,19.0,20.0,63,-99.99,,,0.00,,2013-06-27 13:01:00,
2013-06-27 07:11:00,55.0,43.0,-100.00,SSW,210,19.0,20.0,63,-99.99,,,0.00,,2013-06-27 13:11:00,
2013-06-27 07:22:00,55.0,43.0,-100.00,SSW,210,19.0,20.0,63,-99.99,,,0.00,,2013-06-27 13:22:00,
2013-06-27 08:01:00,55.0,43.0,-100.00,WSW,245,5.0,7.0,63,-99.99,,,0.00,,2013-06-27 14:01:00,
2013-06-27 08:11:00,55.0,43.0,-100.00,WSW,245,5.0,7.0,63,-99.99,,,0.00,,2013-06-27 14:11:00,
2013-06-27 08:22:00,55.0,43.0,-100.00,WSW,245,5.0,7.0,63,-99.99,,,0.00,,2013-06-27 14:22:00,
2013-06-27 09:01:00,63.0,45.0,-100.00,SW,215,13.0,14.0,53,-99.99,,,0.00,,2013-06-27 15:01:00,
2013-06-27 09:22:00,63.0,45.0,-100.00,SW,215,13.0,14.0,53,-99.99,,,0.00,,2013-06-27 15:22:00,
2013-06-27 09:23:00,64.0,45.0,-100.00,SW,220,9.0,12.0,51,-99.99,,,0.00,,2013-06-27 15:23:00,
2013-06-27 10:02:00,64.0,45.0,-100.00,SW,220,9.0,12.0,51,-99.99,,,0.00,,2013-06-27 16:02:00,
2013-06-27 10:11:00,64.0,45.0,-100.00,SW,220,9.0,12.0,51,-99.99,,,0.00,,2013-06-27 16:11:00,
2013-06-27 14:23:00,79.0,42.0,-100.00,West,260,11.0,14.0,27,-99.99,,,0.00,,2013-06-27 20:23:00,
2013-06-27 14:54:00,79.0,42.0,-100.00,West,260,11.0,14.0,27,-99.99,,,0.00,,2013-06-27 20:54:00,
2013-06-27 15:02:00,79.0,42.0,-100.00,West,260,11.0,14.0,27,-99.99,,,0.00,,2013-06-27 21:02:00,
2013-06-27 15:13:00,79.0,42.0,-100.00,West,260,11.0,14.0,27,-99.99,,,0.00,,2013-06-27 21:13:00,
2013-06-27 15:55:00,80.0,43.0,-100.00,WSW,255,17.0,19.0,27,-99.99,,,0.00,,2013-06-27 21:55:00,
2013-06-27 16:04:00,80.0,43.0,-100.00,WSW,255,17.0,19.0,27,-99.99,,,0.00,,2013-06-27 22:04:00,
2013-06-27 16:13:00,80.0,43.0,-100.00,WSW,255,17.0,19.0,27,-99.99,,,0.00,,2013-06-27 22:13:00,
2013-06-27 16:22:00,80.0,43.0,-100.00,WSW,255,17.0,19.0,27,-99.99,,,0.00,,2013-06-27 22:22:00,
2013-06-27 16:57:00,80.0,42.0,-100.00,WSW,245,16.0,19.0,26,-99.99,,,0.00,,2013-06-27 22:57:00,
2013-06-27 17:03:00,80.0,42.0,-100.00,WSW,245,16.0,19.0,26,-99.99,,,0.00,,2013-06-27 23:03:00,
2013-06-27 18:23:00,81.0,43.0,-100.00,WSW,240,12.0,16.0,26,-99.99,,,0.00,,2013-06-28 00:23:00,
2013-06-27 18:56:00,81.0,43.0,-100.00,WSW,240,12.0,16.0,26,-99.99,,,0.00,,2013-06-28 00:56:00,
2013-06-27 19:04:00,81.0,43.0,-100.00,WSW,240,12.0,16.0,26,-99.99,,,0.00,,2013-06-28 01:04:00,
2013-06-27 19:12:00,81.0,43.0,-100.00,WSW,240,12.0,16.0,26,-99.99,,,0.00,,2013-06-28 01:12:00,
2013-06-27 19:23:00,80.0,43.0,-100.00,WNW,285,11.0,14.0,27,-99.99,,,0.00,,2013-06-28 01:23:00,
2013-06-27 19:56:00,80.0,43.0,-100.00,WNW,285,11.0,14.0,27,-99.99,,,0.00,,2013-06-28 01:56:00,
2013-06-27 20:04:00,80.0,43.0,-100.00,WNW,285,11.0,14.0,27,-99.99,,,0.00,,2013-06-28 02:04:00,
2013-06-27 20:14:00,80.0,43.0,-100.00,WNW,285,11.0,14.0,27,-99.99,,,0.00,,2013-06-28 02:14:00,
2013-06-27 20:23:00,73.0,45.0,-100.00,West,265,6.0,6.0,36,-99.99,,,0.00,,2013-06-28 02:23:00,
2013-06-27 21:04:00,73.0,45.0,-100.00,West,265,6.0,6.0,36,-99.99,,,0.00,,2013-06-28 03:04:00,
2013-06-27 21:13:00,73.0,45.0,-100.00,West,265,6.0,6.0,36,-99.99,,,0.00,,2013-06-28 03:13:00,
2013-06-27 21:56:00,71.0,49.0,-100.00,West,280,1.0,2.0,46,-99.99,,,0.00,,2013-06-28 03:56:00,
2013-06-27 22:02:00,71.0,49.0,-100.00,West,280,1.0,2.0,46,-99.99,,,0.00,,2013-06-28 04:02:00,
2013-06-27 22:11:00,71.0,49.0,-100.00,West,280,1.0,2.0,46,-99.99,,,0.00,,2013-06-28 04:11:00,
2013-06-27 22:22:00,71.0,49.0,-100.00,West,280,1.0,2.0,46,-99.99,,,0.00,,2013-06-28 04:22:00,
2013-06-27 22:53:00,69.0,45.0,-100.00,NNE,30,9.0,12.0,42,-99.99,,,0.00,,2013-06-28 04:53:00,
2013-06-27 23:01:00,69.0,45.0,-100.00,NNE,30,9.0,12.0,42,-99.99,,,0.00,,2013-06-28 05:01:00,
2013-06-27 23:11:00,69.0,45.0,-100.00,NNE,30,9.0,12.0,42,-99.99,,,0.00,,2013-06-28 05:11:00,
2013-06-27 23:22:00,69.0,45.0,-100.00,NNE,30,9.0,12.0,42,-99.99,,,0.00,,2013-06-28 05:22:00,